Regional Weather Roundup
Issued by NWS

Home | Current Version | Previous Version | Text Only | Print | Product List | Glossary On
Versions: 1 2 3 4 5 6 7 8 9 10 11 12 13 14 15 16 17 18 19 20 21 22 23 24 25 26 27 28 29 30 31 32 33 34 35 36 37 38 39 40 41 42 43 44 45 46 47 48 49 50
000
ASUS45 KBOI 230910
RWRID

IDAHO REGIONAL WEATHER ROUNDUP
NATIONAL WEATHER SERVICE BOISE ID
300 AM MDT SAT SEP 23 2017

NOTE: "FAIR" INDICATES FEW OR NO CLOUDS BELOW 12000 FEET
WITH NO SIGNIFICANT WEATHER AND/OR OBSTRUCTIONS TO VISIBILITY

IDZ012-014-231000-
SOUTHWEST IDAHO


CITY           SKY/WX    TMP DP  RH WIND       PRES   REMARKS
BOISE          CLEAR     38  35  89 CALM      30.01S
CALDWELL       CLEAR     42  41  96 CALM      30.03S
MOUNTAIN HOME  CLEAR     35  35 100 N3        30.01R
$$

IDZ016-017-231000-
SOUTHCENTRAL IDAHO


CITY           SKY/WX    TMP DP  RH WIND       PRES   REMARKS
BURLEY         CLEAR     34  32  92 CALM      30.01S
JEROME         CLEAR     34  34 100 SE3       30.01F
TWIN FALLS     CLEAR     35  33  92 SW8       30.01F WCI  29
$$

IDZ019>023-231000-
SOUTHEAST IDAHO


CITY           SKY/WX    TMP DP  RH WIND       PRES   REMARKS
IDAHO FALLS    CLEAR     35  33  92 SE5       30.03R WCI  31
POCATELLO      PTCLDY    34  33  96 S3        30.03S
REXBURG        PTCLDY    36  31  82 S5        30.02S WCI  32
$$

IDZ006-010-011-018-031-032-231000-
CENTRAL IDAHO MOUNTAINS


CITY           SKY/WX    TMP DP  RH WIND       PRES   REMARKS
MCCALL         CLEAR     31  29  92 CALM      30.00S
HAILEY         CLEAR     32  32 100 NW7       30.02S WCI  26
STANLEY          N/A     31  29  92 CALM      30.02S
SALMON         CLOUDY    43  32  65 CALM      30.03S
CHALLIS        CLOUDY    36  34  92 W3        30.01S
$$

IDZ002-004-006-007-026-231000-
NORTHERN IDAHO


CITY           SKY/WX    TMP DP  RH WIND       PRES   REMARKS
LEWISTON       LGT RAIN  49  45  86 SE5       30.05S
LOWELL           N/A     43  40  89 CALM      30.10R
COEUR D`ALENE  CLOUDY    47  40  76 S8        30.04S
MULLAN PASS    CLOUDY    31  29  92 S3        30.02S FOG
$$



USA.gov is the U.S. government's official web portal to all federal, state and local government web resources and services.